Location: Ay?beleni
(36.6500°N, 30.3000°E)
Time: 04:56:01
(UTC+00:00)

SL-16 R/B - Pass Details

Date: 16 October 2021
Orbit: 842 x 846 km, 71.0° (Epoch: 08 December)

Event Time Altitude Azimuth Distance (km) Brightness Sun altitude
Rises 16:18:27 0° 163° (SSE) 3,382 5.2 -12.3°
Reaches altitude 10° 16:21:26 10° 148° (SSE) 2,453 4.3 -12.9°
Maximum altitude 16:25:34 21° 100° (E) 1,795 3.3 -13.7°
Enters shadow 16:26:47 20° 83° (E) 1,865 3.4 -13.9°
